Location: Bobigny
(48.9098°N, 2.4501°E)
Time: 00:34:28
(UTC+00:00)

Daily predictions for brighter satellites

Satellite Brightness Start Highest point End
(mag) Time Altitude Azimuth Time Altitude Azimuth Time Altitude Azimuth
Cosmos 1271 Rocket 4.2 00:05:51 23° WNW 00:05:51 23° WNW 00:08:39 10° NNW
MetOp-A 4.1 00:06:53 51° SW 00:07:32 56° W 00:12:14 10° NNW
Cosmos 2297 Rocket 2.1 00:14:23 51° S 00:15:47 75° ESE 00:21:27 10° NNE
Intercosmos 24 4.1 00:18:10 10° NNW 00:21:51 53° WNW 00:21:51 53° WNW
CZ-2C R/B 3.6 00:20:48 10° N 00:26:25 60° WNW 00:28:30 38° SW
NOSS 0 Rocket 4.3 00:21:40 10° NW 00:27:31 46° WSW 00:28:46 41° SW
Cosmos 1937 Rocket 4.2 00:23:04 10° NW 00:27:44 36° WSW 00:28:06 35° WSW
SL-14 R/B 4.2 00:29:37 34° ESE 00:29:52 34° E 00:33:21 10° NNE
RESURS DK-1 4.1 00:29:35 10° NW 00:31:32 19° W 00:31:32 19° W
Cosmos 192 4.3 00:28:08 10° NNW 00:33:06 78° ENE 00:34:37 45° SE
Cosmos 1066 Rocket 4.1 00:36:30 47° S 00:38:04 75° E 00:43:34 10° NNE
BREEZE-M DEB (TANK) 4.3 00:16:09 10° WNW 00:39:41 81° SSW 00:44:45 10° ESE
Meteor 1-18 Rocket 4.4 00:38:04 40° SSE 00:39:54 61° E 00:45:29 10° NNE
Iridium 4 Rocket 3.7 00:38:11 45° S 00:40:01 86° E 00:45:52 10° N
Cosmos 1151 Rocket 4.2 00:42:31 29° ESE 00:43:35 33° E 00:47:28 10° NNE
Meteor 2-10 Rocket 3.6 00:39:32 10° NNW 00:45:03 84° W 00:47:00 43° S
Lacrosse 4 Rocket 1.1 00:45:40 73° SSE 00:45:50 75° ESE 00:49:55 10° NE
Okean 3 Rocket 3.7 00:43:59 10° N 00:48:32 74° E 00:49:41 49° SSE
BlueWalker 3 2.7 00:52:58 36° ESE 00:52:58 36° ESE 00:55:27 10° ENE
BREEZE-M DEB (TANK) 3.6 00:39:43 10° SW 00:53:40 63° SSE 00:57:54 10° ENE
DELTA 2 DEB (DPAF) 3.5 00:52:08 10° N 00:55:41 70° WNW 00:55:45 70° W
USA 234 3.6 00:51:17 10° NE 00:57:44 63° NNW 01:04:10 10° WSW
Cosmos 1553 Rocket 4.1 00:55:50 35° S 00:58:41 76° E 01:05:06 10° NNE
SeaSat 1 2.7 01:00:00 43° SW 01:00:33 45° WSW 01:05:16 10° NW
SL-16 R/B 2.6 00:54:53 10° NNW 01:00:34 64° ENE 01:05:31 14° SE
ACS3 Solar Sail 1.7 00:54:40 10° NNE 01:00:40 88° WNW 01:03:08 38° SSW
ATLAS 5 CENTAUR R/B 3.8 00:58:11 34° S 01:01:02 58° ESE 01:20:34 10° NE
Cosmos 1842 Rocket 3.6 01:00:28 53° SW 01:01:16 64° WNW 01:05:39 10° N
Cosmos 1125 Rocket 3.9 00:58:01 10° NNW 01:03:17 61° ENE 01:07:07 18° SE
Alouette 2 Rocket 4.3 01:01:31 10° NNW 01:05:00 36° W 01:05:06 36° WSW
Spot 1 4.4 01:02:19 10° NNE 01:06:56 65° ESE 01:08:28 41° SSE
ATLAS 2AS CENTAUR R/B 3.9 01:01:23 10° NW 01:07:49 43° NE 01:14:15 10° ESE
PSLV R/B 3.7 01:05:56 10° NNE 01:09:50 84° ESE 01:10:26 62° S
Cosmos 1805 Rocket 3.5 01:07:37 10° N 01:11:59 78° E 01:13:21 43° SSE
SL-08 R/B 4.4 01:06:35 10° N 01:12:56 80° W 01:16:00 32° S
Cosmos 2237 Rocket 2.9 01:08:29 10° NW 01:13:33 34° WSW 01:14:26 33° SW
Cosmos 1743 Rocket 4.1 01:12:12 10° N 01:16:27 52° ENE 01:18:36 26° SE
Meteor 2-4 Rocket 4.5 01:17:00 28° WSW 01:19:05 39° WNW 01:24:14 10° N
Cosmos 1814 Rocket 4.1 01:17:45 38° SW 01:19:41 65° WNW 01:24:54 10° NNE
Cosmos 1386 Rocket 4.5 01:13:31 10° N 01:19:52 88° E 01:23:39 26° S
CZ-2C R/B 4.1 01:20:01 20° WSW 01:20:47 21° W 01:24:42 10° NW
IDEFIX/ARIANE 42P 3.1 01:16:11 10° NNE 01:21:18 53° E 01:23:51 28° SSE
Sich 1 3.3 01:18:31 10° NNW 01:22:31 45° W 01:23:02 43° WSW
CZ-4C R/B 4.4 01:20:23 10° N 01:23:15 26° WNW 01:23:33 26° WNW
Cosmos 2227 Rocket 2.2 01:23:14 35° SW 01:25:43 78° WNW 01:31:25 10° NNE
In-Cosmos 22 4.2 01:23:33 37° SSW 01:25:51 76° WNW 01:31:31 10° N
EXPRESS MD2 4.0 01:27:12 24° ENE 01:27:12 24° ENE 01:28:23 10° ENE
MSX 4.1 01:21:11 10° NNE 01:26:55 61° ESE 01:30:04 27° S
Cosmos 1745 Rocket 4.0 01:23:03 10° N 01:29:13 81° E 01:33:25 22° SSE
Cosmos 1408 Rocket 3.6 01:32:59 10° NNW 01:37:12 56° W 01:38:22 41° SSW
Cosmos 2263 Rocket 2.1 01:36:23 33° SSW 01:39:01 88° ESE 01:44:39 10° NNE
Cosmos 1943 3.8 01:41:48 10° NNW 01:47:23 58° ENE 01:52:53 10° SE
Cosmos 1417 Rocket 4.4 01:49:47 26° SSW 01:53:23 80° W 01:59:35 10° N
Envisat 4.3 01:51:29 10° NNE 01:56:06 34° E 02:00:31 11° SSE
NOSS 2-2 (C) 4.0 01:56:25 27° SSE 01:57:10 31° SE 01:59:54 10° ENE
CENTAUR R/B 3.7 01:55:19 15° SSE 01:58:57 30° ESE 02:04:35 10° NE
Cosmos 2297 Rocket 3.8 01:56:08 11° W 02:00:25 25° NW 02:05:02 10° NNE
Cosmos 1867 4.4 01:58:46 10° NNW 02:04:08 53° NE 02:09:28 10° ESE
Cosmos 2082 3.8 02:03:41 24° SSW 02:07:12 72° ESE 02:12:49 10° NNE
Cosmos 1340 Rocket 3.6 02:04:57 10° NNW 02:08:21 30° W 02:09:06 28° WSW
Cosmos 1844 Rocket 3.8 02:06:34 13° SSE 02:11:04 36° ESE 02:16:06 10° NE
USA 81 4.1 02:07:55 10° N 02:13:13 79° E 02:18:23 10° S
ADEOS II 3.7 02:08:56 10° NE 02:13:28 29° E 02:17:57 10° SSE
Cosmos 2084 3.4 02:10:01 10° NW 02:14:03 53° SW 02:18:02 10° SSE
Cosmos 1470 Rocket 4.0 02:14:57 10° N 02:19:16 63° ENE 02:23:36 10° SSE
Resurs 1-4 Rocket 2.9 02:14:15 10° NNE 02:19:20 46° E 02:24:22 10° S
Cosmos 1633 Rocket 2.9 02:15:28 10° N 02:19:48 87° W 02:23:34 13° S
Cosmos 1151 Rocket 4.3 02:19:09 20° WSW 02:21:00 26° WNW 02:24:40 10° NNW
Cosmos 2285 Rocket 4.4 02:14:50 10° NNW 02:21:08 68° ENE 02:27:26 10° SSE
Meteor 1-13 Rocket 4.2 02:17:04 19° SSW 02:21:09 84° W 02:26:56 10° N
Cosmos 1703 3.3 02:20:31 30° WSW 02:21:32 41° WNW 02:24:37 10° N
S3M 4.2 02:18:41 21° SSW 02:22:52 58° WNW 02:28:58 10° N
Atlas Centaur 2 4.3 02:20:31 15° S 02:22:53 17° SSE 02:27:41 10° SE
Lacrosse 4 Rocket 3.5 02:21:14 10° W 02:24:07 18° NW 02:27:01 10° N
NOSS 2-2 (D) 4.3 02:23:59 17° S 02:25:48 27° SE 02:28:28 10° ENE
USA 307 4.0 02:29:37 15° SSE 02:29:37 15° SSE 02:30:34 10° SSE
Cosmos 2315 Rocket 4.1 02:24:18 18° SSW 02:29:04 66° WNW 02:35:24 10° N
BlueWalker 3 2.4 02:26:35 14° W 02:29:26 51° NNW 02:32:55 10° ENE
Cosmos 2298 Rocket 4.0 02:29:35 10° NNW 02:34:56 77° WSW 02:40:13 10° SSE
Cosmos 1570 Rocket 4.3 02:34:00 19° SW 02:37:44 59° WNW 02:43:00 10° NNE
USA 234 4.3 02:34:04 10° ENE 02:40:12 44° N 02:46:20 10° WNW
Cosmos 1953 2.8 02:37:09 10° NNW 02:40:29 34° W 02:42:23 20° SW
Tiangong -0.7 02:40:17 20° SSW 02:40:33 20° S 02:42:59 10° SE
FENGYUN 3A 4.1 02:36:50 10° N 02:42:01 48° WNW 02:46:05 16° SW
ACS3 Solar Sail 3.5 02:38:17 10° NNW 02:42:13 19° WNW 02:46:10 10° W
USA 281 3.2 02:36:21 10° SSE 02:42:54 72° WSW 02:49:30 10° NNW
ADEOS Rocket 3.8 02:35:56 10° N 02:43:31 59° WNW 02:49:49 14° SW
Cosmos 1844 4.2 02:38:29 12° S 02:43:45 57° ESE 02:49:25 10° NE
SL-16 R/B 3.3 02:39:44 10° NW 02:44:12 24° WSW 02:47:18 15° SW
SL-16 R/B 4.1 02:38:42 10° SE 02:44:24 39° ENE 02:50:07 10° N
Cosmos 2219 3.6 02:42:11 16° SW 02:46:31 54° NW 02:52:03 10° NNE
CZ-4C R/B 3.4 02:41:28 10° NW 02:48:06 65° NE 02:56:30 10° SE
Cosmos 1900 4.2 02:44:12 10° NW 02:49:06 82° SW 02:53:57 10° SSE
Cosmos 1666 Rocket 4.3 02:46:13 10° NNW 02:50:18 36° W 02:53:37 14° SSW
CZ-2D R/B 2.3 02:49:13 10° NNE 02:54:39 81° ESE 03:00:06 10° SSW
NOAA 11 4.5 02:49:26 10° N 02:54:46 56° WNW 02:59:35 13° SW
NPP 4.5 02:51:13 10° N 02:56:07 37° WNW 03:00:27 13° SW
Cosmos 1869 Rocket 4.5 02:53:34 10° N 02:57:51 51° ENE 03:02:03 10° SSE
H-2A R/B 2.0 02:54:21 10° S 02:57:53 76° WSW 03:01:31 10° NNW
ATLAS 2AS CENTAUR R/B 2.7 02:52:21 10° NW 02:59:00 61° WSW 03:05:41 10° SSE
H-2A R/B 4.5 02:56:16 10° NE 02:59:01 18° E 03:01:44 10° SE
Cosmos 2150 Rocket 4.4 02:55:03 10° NNW 03:00:14 46° WSW 03:05:23 10° S
IDEFIX/ARIANE 42P 3.9 02:56:10 10° N 03:00:27 26° WNW 03:04:33 11° WSW
Cosmos 1295 Rocket 4.5 02:56:44 10° NNW 03:02:58 71° W 03:09:05 10° S
ALOS 2.2 03:00:20 10° NNE 03:04:54 81° WNW 03:09:27 10° SSW
Cosmos 2227 Rocket 4.1 03:06:39 10° W 03:10:41 19° NW 03:14:44 10° N
H-2A R/B 2.2 03:06:07 10° NNE 03:11:32 87° WNW 03:16:58 10° SSW
ARGOS 4.1 03:06:51 10° NNE 03:12:02 47° E 03:17:09 10° S
Meteor 1-12 Rocket 4.3 03:06:40 10° NNW 03:12:19 64° W 03:17:52 10° S
Cosmos 1515 Rocket 3.7 03:10:15 10° SSW 03:14:37 61° WNW 03:19:01 10° N
Cosmos 2227 4.3 03:14:40 10° SW 03:20:22 73° WNW 03:26:08 10° NNE
Cosmos 2263 Rocket 3.9 03:19:24 10° W 03:23:40 22° NW 03:27:57 10° N
IRIDIUM 104 4.4 03:18:33 10° N 03:23:42 61° W 03:28:49 10° SSW
NOSS 2-2 (E) 2.8 03:22:03 10° SW 03:25:28 77° SE 03:28:29 10° NE
EXPRESS MD2 2.3 03:24:21 10° WNW 03:26:42 84° S 03:30:02 10° ESE
Cosmos 1943 4.2 03:26:26 10° NW 03:31:00 26° WSW 03:35:32 10° SSW
Cosmos 2154 Rocket 4.1 03:25:34 10° NNW 03:31:42 58° W 03:37:44 10° S
Envisat 3.8 03:30:25 10° N 03:35:03 37° WNW 03:39:39 10° SW
Cosmos 2074 Rocket 4.3 03:30:34 10° NNW 03:36:33 47° W 03:42:28 10° SSW
